• In Deutschland
  • Länderverzeichnis
  • Für 7 Tage
  • Wassertemperatur
  • Satellitenkarten
  • Wetterkarte
  • Widgets
  • user-avatar
    Anmelden

    Stündliche Wetter Offenburg

    Heute, 20 Oktober, Freitag

    Zeit Temperatur Niederschläge Wind Luftdruck Luftfeuchtigkeit
    00:00 +15°C° 0 mm 1 m/S 746 mmHg 65%
    01:00 +15°C° 0 mm 1 m/S 745 mmHg 64%
    02:00 +15°C° 0 mm 2 m/S 745 mmHg 65%
    03:00 +15°C° 0 mm 2 m/S 745 mmHg 66%
    04:00 +15°C° 0 mm 2 m/S 745 mmHg 67%
    05:00 +15°C° 0 mm 2 m/S 746 mmHg 67%
    06:00 +15°C° 0 mm 2 m/S 746 mmHg 66%
    07:00 +15°C° 0 mm 2 m/S 746 mmHg 62%
    08:00 +16°C° 0,1 mm 3 m/S 746 mmHg 62%
    09:00 +17°C° 0,1 mm 3 m/S 746 mmHg 62%
    10:00 +19°C° 0,1 mm 4 m/S 747 mmHg 61%
    11:00 +18°C° 0 mm 4 m/S 747 mmHg 65%
    12:00 +18°C° 0 mm 4 m/S 747 mmHg 68%
    13:00 +18°C° 0 mm 4 m/S 748 mmHg 71%
    14:00 +18°C° 0 mm 4 m/S 748 mmHg 72%
    15:00 +18°C° 0 mm 4 m/S 748 mmHg 73%
    16:00 +18°C° 0 mm 4 m/S 748 mmHg 74%
    17:00 +17°C° 0 mm 3 m/S 748 mmHg 79%
    18:00 +16°C° 0 mm 2 m/S 748 mmHg 83%
    19:00 +15°C° 0 mm 2 m/S 748 mmHg 88%
    20:00 +15°C° 0 mm 2 m/S 748 mmHg 89%
    21:00 +15°C° 0 mm 1 m/S 748 mmHg 89%
    22:00 +14°C° 0 mm 1 m/S 749 mmHg 90%
    23:00 +14°C° 0 mm 1 m/S 749 mmHg 90%

    Morgen, 21 Oktober, Samstag

    Zeit Temperatur Niederschläge Wind Luftdruck Luftfeuchtigkeit
    00:00 +14°C° 0 mm 1 m/S 749 mmHg 90%
    01:00 +14°C° 0 mm 2 m/S 749 mmHg 90%
    02:00 +14°C° 0 mm 2 m/S 748 mmHg 91%
    03:00 +14°C° 0 mm 2 m/S 748 mmHg 91%
    04:00 +14°C° 0 mm 2 m/S 748 mmHg 92%
    05:00 +14°C° 0 mm 2 m/S 748 mmHg 92%
    06:00 +14°C° 0 mm 2 m/S 748 mmHg 92%
    07:00 +14°C° 0 mm 2 m/S 748 mmHg 92%
    08:00 +16°C° 0 mm 3 m/S 748 mmHg 85%
    09:00 +17°C° 0 mm 4 m/S 748 mmHg 78%
    10:00 +19°C° 0 mm 4 m/S 748 mmHg 71%
    11:00 +20°C° 0 mm 4 m/S 748 mmHg 68%
    12:00 +21°C° 0 mm 4 m/S 748 mmHg 64%
    13:00 +22°C° 0 mm 5 m/S 748 mmHg 60%
    14:00 +20°C° 0,6 mm 4 m/S 748 mmHg 67%
    15:00 +19°C° 0,6 mm 4 m/S 748 mmHg 75%
    16:00 +18°C° 0,6 mm 3 m/S 748 mmHg 82%
    17:00 +16°C° 0,8 mm 3 m/S 748 mmHg 85%
    18:00 +14°C° 0,8 mm 3 m/S 748 mmHg 87%
    19:00 +13°C° 0,8 mm 3 m/S 749 mmHg 89%
    20:00 +13°C° 0,4 mm 4 m/S 749 mmHg 89%
    21:00 +12°C° 0,4 mm 4 m/S 750 mmHg 89%
    22:00 +11°C° 0,4 mm 4 m/S 750 mmHg 89%
    23:00 +11°C° 0,1 mm 4 m/S 750 mmHg 89%

    übermorgen, 22 Oktober, Sonntag

    Zeit Temperatur Niederschläge Wind Luftdruck Luftfeuchtigkeit
    00:00 +11°C° 0,1 mm 4 m/S 750 mmHg 89%
    01:00 +11°C° 0,1 mm 4 m/S 751 mmHg 89%
    02:00 +10°C° 0 mm 4 m/S 750 mmHg 89%
    03:00 +10°C° 0 mm 4 m/S 750 mmHg 89%
    04:00 +9°C° 0 mm 3 m/S 750 mmHg 90%
    05:00 +9°C° 0 mm 3 m/S 750 mmHg 90%
    06:00 +9°C° 0 mm 3 m/S 750 mmHg 90%
    07:00 +8°C° 0 mm 3 m/S 750 mmHg 90%
    08:00 +8°C° 0 mm 4 m/S 750 mmHg 85%
    09:00 +10°C° 0 mm 4 m/S 750 mmHg 80%
    10:00 +10°C° 0 mm 5 m/S 750 mmHg 75%
    11:00 +12°C° 0,1 mm 5 m/S 750 mmHg 71%
    12:00 +12°C° 0,1 mm 5 m/S 750 mmHg 68%
    13:00 +13°C° 0,1 mm 5 m/S 750 mmHg 64%
    14:00 +12°C° 0,3 mm 5 m/S 750 mmHg 68%
    15:00 +10°C° 0,3 mm 5 m/S 750 mmHg 71%
    16:00 +11°C° 0,3 mm 4 m/S 750 mmHg 75%
    17:00 +10°C° 0,1 mm 4 m/S 750 mmHg 78%
    18:00 +8°C° 0,1 mm 4 m/S 750 mmHg 81%
    19:00 +7°C° 0,1 mm 4 m/S 751 mmHg 85%
    20:00 +7°C° 0,1 mm 4 m/S 751 mmHg 85%
    21:00 +7°C° 0,1 mm 4 m/S 751 mmHg 86%
    22:00 +7°C° 0,1 mm 4 m/S 751 mmHg 86%
    23:00 +7°C° 0,5 mm 4 m/S 751 mmHg 87%

    23 Oktober, Montag

    Zeit Temperatur Niederschläge Wind Luftdruck Luftfeuchtigkeit
    00:00 +7°C° 0,5 mm 4 m/S 751 mmHg 88%
    01:00 +7°C° 0,5 mm 4 m/S 751 mmHg 90%
    02:00 +7°C° 0,8 mm 4 m/S 751 mmHg 90%
    03:00 +8°C° 0,8 mm 4 m/S 751 mmHg 91%
    04:00 +8°C° 0,8 mm 4 m/S 750 mmHg 92%
    05:00 +8°C° 0,4 mm 4 m/S 751 mmHg 92%
    06:00 +8°C° 0,4 mm 4 m/S 751 mmHg 92%
    07:00 +8°C° 0,4 mm 4 m/S 751 mmHg 92%
    08:00 +8°C° 0,2 mm 4 m/S 751 mmHg 90%
    09:00 +10°C° 0,2 mm 4 m/S 751 mmHg 88%
    10:00 +10°C° 0,2 mm 4 m/S 752 mmHg 86%
    11:00 +10°C° 0,2 mm 4 m/S 752 mmHg 87%
    12:00 +10°C° 0,2 mm 4 m/S 752 mmHg 87%
    13:00 +11°C° 0,2 mm 4 m/S 752 mmHg 88%
    14:00 +11°C° 0,4 mm 4 m/S 752 mmHg 88%
    15:00 +11°C° 0,4 mm 4 m/S 752 mmHg 89%
    16:00 +11°C° 0,4 mm 4 m/S 752 mmHg 90%
    17:00 +10°C° 1,2 mm 3 m/S 752 mmHg 91%
    18:00 +10°C° 1,2 mm 3 m/S 752 mmHg 92%
    19:00 +10°C° 1,2 mm 3 m/S 752 mmHg 93%
    20:00 +10°C° 1,5 mm 3 m/S 752 mmHg 93%
    21:00 +10°C° 1,5 mm 3 m/S 752 mmHg 94%
    22:00 +10°C° 1,5 mm 3 m/S 752 mmHg 94%
    23:00 +10°C° 0,7 mm 2 m/S 752 mmHg 94%

    24 Oktober, Dienstag

    Zeit Temperatur Niederschläge Wind Luftdruck Luftfeuchtigkeit
    00:00 +12°C° 0,7 mm 2 m/S 752 mmHg 94%
    01:00 +12°C° 0,7 mm 2 m/S 752 mmHg 94%
    02:00 +12°C° 0,5 mm 2 m/S 752 mmHg 95%
    03:00 +12°C° 0,5 mm 2 m/S 752 mmHg 95%
    04:00 +12°C° 0,5 mm 2 m/S 752 mmHg 95%
    05:00 +13°C° 0,2 mm 2 m/S 753 mmHg 96%
    06:00 +13°C° 0,2 mm 1 m/S 753 mmHg 96%
    07:00 +13°C° 0,2 mm 1 m/S 753 mmHg 96%
    08:00 +13°C° 0,1 mm 1 m/S 753 mmHg 95%
    09:00 +14°C° 0,1 mm 1 m/S 754 mmHg 93%
    10:00 +14°C° 0,1 mm 1 m/S 754 mmHg 92%
    11:00 +15°C° 0 mm 1 m/S 754 mmHg 89%
    12:00 +16°C° 0 mm 1 m/S 754 mmHg 85%
    13:00 +16°C° 0 mm 0 m/S 754 mmHg 81%
    14:00 +16°C° 0 mm 0 m/S 754 mmHg 82%
    15:00 +16°C° 0 mm 0 m/S 754 mmHg 83%
    16:00 +16°C° 0 mm 0 m/S 754 mmHg 83%
    17:00 +15°C° 0 mm 0 m/S 754 mmHg 87%
    18:00 +13°C° 0 mm 0 m/S 754 mmHg 90%
    19:00 +12°C° 0 mm 0 m/S 754 mmHg 93%
    20:00 +12°C° 0 mm 0 m/S 755 mmHg 93%
    21:00 +12°C° 0 mm 1 m/S 755 mmHg 94%
    22:00 +12°C° 0 mm 1 m/S 755 mmHg 94%
    23:00 +12°C° 0 mm 1 m/S 755 mmHg 94%

    25 Oktober, Mittwoch

    Zeit Temperatur Niederschläge Wind Luftdruck Luftfeuchtigkeit
    00:00 +12°C° 0 mm 1 m/S 755 mmHg 94%
    01:00 +12°C° 0 mm 1 m/S 755 mmHg 93%
    02:00 +11°C° 0 mm 1 m/S 754 mmHg 93%
    03:00 +11°C° 0 mm 1 m/S 754 mmHg 93%
    04:00 +11°C° 0 mm 1 m/S 754 mmHg 93%
    05:00 +11°C° 0 mm 1 m/S 754 mmHg 92%
    06:00 +11°C° 0 mm 1 m/S 754 mmHg 92%
    07:00 +11°C° 0 mm 1 m/S 754 mmHg 92%
    08:00 +12°C° 0 mm 1 m/S 754 mmHg 86%
    09:00 +14°C° 0 mm 1 m/S 755 mmHg 81%
    10:00 +16°C° 0 mm 1 m/S 755 mmHg 75%
    11:00 +18°C° 0 mm 1 m/S 754 mmHg 69%
    12:00 +19°C° 0 mm 1 m/S 754 mmHg 62%
    13:00 +21°C° 0 mm 1 m/S 754 mmHg 56%
    14:00 +20°C° 0 mm 1 m/S 754 mmHg 59%
    15:00 +20°C° 0 mm 1 m/S 754 mmHg 61%
    16:00 +20°C° 0 mm 1 m/S 753 mmHg 64%
    17:00 +18°C° 0 mm 1 m/S 753 mmHg 69%
    18:00 +15°C° 0 mm 1 m/S 754 mmHg 74%
    19:00 +13°C° 0 mm 1 m/S 754 mmHg 78%
    20:00 +13°C° 0 mm 1 m/S 754 mmHg 78%
    21:00 +12°C° 0 mm 1 m/S 754 mmHg 77%
    22:00 +12°C° 0 mm 1 m/S 754 mmHg 76%
    23:00 +12°C° 0 mm 1 m/S 754 mmHg 74%
    Mehr zeigen